| time (UTC) | temp F | wind direction | speed MPH | gust MPH | rain 1hr in | rain 24hr in | rain mn in | humidity % | barometer mb |
| 20260903063039 | 81 | 11 | 1.0 | 6.0 | 0.00 | 0.00 | 0.00 | 66 | 1011.0 |
| 20260903061633 | 81 | 11 | 1.0 | 5.0 | 0.00 | 0.00 | 0.00 | 65 | 1011.1 |
| 20260903060031 | 81 | 186 | 1.0 | 8.0 | 0.00 | 0.00 | 0.00 | 64 | 1011.0 |
| 20260903054537 | 82 | 185 | 1.0 | 5.0 | 0.00 | 0.00 | 0.00 | 64 | 1011.1 |
| 20260903053032 | 82 | 11 | 2.0 | 6.0 | 0.00 | 0.00 | 0.00 | 64 | 1011.0 |
| 20260903051527 | 82 | 11 | 1.0 | 6.0 | 0.00 | 0.00 | 0.00 | 63 | 1011.0 |
| 20260903050027 | 82 | 11 | 0.0 | 5.0 | 0.00 | 0.00 | 0.00 | 63 | 1011.0 |
| 20260903044522 | 83 | 11 | 1.0 | 4.0 | 0.00 | 0.00 | 0.00 | 62 | 1011.0 |
| 20260903043026 | 83 | 11 | 1.0 | 8.0 | 0.00 | 0.00 | 0.00 | 61 | 1011.0 |
| 20260903041523 | 84 | 11 | 1.0 | 4.0 | 0.00 | 0.00 | 0.00 | 61 | 1011.1 |
| 20260903040021 | 84 | 174 | 1.0 | 5.0 | 0.00 | 0.00 | 0.00 | 60 | 1011.1 |
| 20260903034526 | 84 | 11 | 2.0 | 6.0 | 0.00 | 0.00 | 0.00 | 61 | 1011.1 |
| 20260903033020 | 84 | 11 | 2.0 | 6.0 | 0.00 | 0.00 | 0.00 | 61 | 1011.1 |
| 20260903031519 | 84 | 11 | 1.0 | 5.0 | 0.00 | 0.00 | 0.00 | 61 | 1011.0 |
| 20260903030018 | 84 | 165 | 1.0 | 5.0 | 0.00 | 0.00 | 0.00 | 61 | 1011.0 |
| 20260903024518 | 85 | 11 | 0.0 | 3.0 | 0.00 | 0.00 | 0.00 | 60 | 1010.9 |
| 20260903023032 | 85 | 177 | 1.0 | 6.0 | 0.00 | 0.00 | 0.00 | 59 | 1010.8 |
| 20260903021518 | 86 | 11 | 0.0 | 4.0 | 0.00 | 0.00 | 0.00 | 58 | 1010.8 |
| 20260903020016 | 86 | 11 | 0.0 | 8.0 | 0.00 | 0.00 | 0.00 | 57 | 1010.4 |
| 20260903014521 | 87 | 11 | 1.0 | 5.0 | 0.00 | 0.00 | 0.00 | 55 | 1010.3 |
| 20260903013016 | 88 | 11 | 0.0 | 3.0 | 0.00 | 0.00 | 0.00 | 54 | 1010.2 |
| 20260903011521 | 89 | 11 | 0.0 | 3.0 | 0.00 | 0.00 | 0.00 | 52 | 1010.0 |
| 20260903010017 | 91 | 11 | 0.0 | 3.0 | 0.00 | 0.00 | 0.00 | 50 | 1009.8 |
| 20260903004523 | 92 | 11 | 0.0 | 2.0 | 0.00 | 0.00 | 0.00 | 48 | 1009.8 |
| 20260903003013 | 93 | 11 | 0.0 | 4.0 | 0.00 | 0.00 | 0.00 | 47 | 1009.7 |
| 20260903000059 | 95 | 191 | 1.0 | 8.0 | 0.00 | 0.00 | 0.00 | 44 | 1009.7 |
| 20260902234627 | 96 | 11 | 2.0 | 6.0 | 0.00 | 0.00 | 0.00 | 44 | 1009.8 |
| 20260902233041 | 96 | 191 | 4.0 | 15.0 | 0.00 | 0.00 | 0.00 | 42 | 1010.0 |
| 20260902231621 | 97 | 11 | 4.0 | 13.0 | 0.00 | 0.00 | 0.00 | 42 | 1009.8 |
| 20260902230035 | 97 | 199 | 6.0 | 13.0 | 0.00 | 0.00 | 0.00 | 41 | 1009.9 |
| 20260902224622 | 97 | 255 | 6.0 | 16.0 | 0.00 | 0.00 | 0.00 | 40 | 1010.0 |
| 20260902223035 | 97 | 11 | 7.0 | 17.0 | 0.00 | 0.00 | 0.00 | 42 | 1010.0 |
| 20260902221620 | 98 | 211 | 4.0 | 15.0 | 0.00 | 0.00 | 0.00 | 42 | 1010.0 |
| 20260902220030 | 99 | 194 | 2.0 | 14.0 | 0.00 | 0.00 | 0.00 | 42 | 1010.0 |
| 20260902214625 | 99 | 11 | 4.0 | 16.0 | 0.00 | 0.00 | 0.00 | 40 | 1010.1 |
| 20260902213025 | 100 | 11 | 9.0 | 20.0 | 0.00 | 0.00 | 0.00 | 39 | 1010.3 |
| 20260902211617 | 101 | 11 | 5.0 | 12.0 | 0.00 | 0.00 | 0.00 | 39 | 1010.6 |
| 20260902210026 | 101 | 223 | 5.0 | 16.0 | 0.00 | 0.00 | 0.00 | 38 | 1010.7 |
| 20260902204621 | 101 | 11 | 5.0 | 15.0 | 0.00 | 0.00 | 0.00 | 39 | 1011.0 |
| 20260902201503 | 100 | 197 | 6.0 | 18.0 | 0.00 | 0.00 | 0.00 | 41 | 1011.3 |
| 20260902200048 | 101 | 156 | 4.0 | 23.0 | 0.00 | 0.00 | 0.00 | 41 | 1011.4 |
| 20260902194631 | 100 | 11 | 6.0 | 21.0 | 0.00 | 0.00 | 0.00 | 41 | 1011.7 |
| 20260902193051 | 100 | 11 | 2.0 | 17.0 | 0.00 | 0.00 | 0.00 | 45 | 1011.9 |
| 20260902191503 | 100 | 11 | 7.0 | 19.0 | 0.00 | 0.00 | 0.00 | 42 | 1012.0 |
| 20260902190049 | 100 | 250 | 8.0 | 14.0 | 0.00 | 0.00 | 0.00 | 43 | 1012.1 |
| 20260902184502 | 99 | 11 | 7.0 | 19.0 | 0.00 | 0.00 | 0.00 | 45 | 1012.3 |
| 20260902183042 | 99 | 199 | 5.0 | 23.0 | 0.00 | 0.00 | 0.00 | 45 | 1012.5 |
| 20260902181628 | 99 | 205 | 7.0 | 15.0 | 0.00 | 0.00 | 0.00 | 46 | 1012.6 |
| 20260902180039 | 98 | 11 | 4.0 | 18.0 | 0.00 | 0.00 | 0.00 | 50 | 1012.9 |
| 20260902174518 | 97 | 11 | 7.0 | 18.0 | 0.00 | 0.00 | 0.00 | 49 | 1013.0 |
| 20260902173053 | 97 | 196 | 5.0 | 16.0 | 0.00 | 0.00 | 0.00 | 51 | 1013.2 |
| 20260902171509 | 96 | 11 | 8.0 | 20.0 | 0.00 | 0.00 | 0.00 | 51 | 1013.4 |
| 20260902170052 | 95 | 11 | 4.0 | 18.0 | 0.00 | 0.00 | 0.00 | 52 | 1013.7 |
| 20260902164547 | 94 | 11 | 7.0 | 18.0 | 0.00 | 0.00 | 0.00 | 53 | 1013.7 |
| 20260902163132 | 94 | 11 | 6.0 | 20.0 | 0.00 | 0.00 | 0.00 | 54 | 1013.8 |
| 20260902161610 | 93 | 233 | 5.0 | 20.0 | 0.00 | 0.00 | 0.00 | 55 | 1013.9 |
| 20260902160024 | 92 | 11 | 5.0 | 17.0 | 0.00 | 0.00 | 0.00 | 57 | 1013.7 |
| 20260902154613 | 91 | 11 | 5.0 | 21.0 | 0.00 | 0.00 | 0.00 | 58 | 1013.9 |
| 20260902153031 | 89 | 255 | 5.0 | 16.0 | 0.00 | 0.00 | 0.00 | 59 | 1013.8 |
| 20260902151623 | 88 | 200 | 8.0 | 23.0 | 0.00 | 0.00 | 0.00 | 60 | 1013.9 |
| 20260902150034 | 88 | 274 | 9.0 | 17.0 | 0.00 | 0.00 | 0.00 | 61 | 1014.0 |
| 20260902144628 | 86 | 11 | 1.0 | 16.0 | 0.00 | 0.00 | 0.00 | 65 | 1014.0 |
| 20260902143040 | 85 | 11 | 4.0 | 21.0 | 0.00 | 0.00 | 0.00 | 66 | 1014.2 |
| 20260902141639 | 83 | 11 | 5.0 | 15.0 | 0.00 | 0.00 | 0.00 | 67 | 1014.1 |
| 20260902140104 | 82 | 191 | 6.0 | 17.0 | 0.00 | 0.00 | 0.00 | 68 | 1014.1 |
| 20260902134512 | 81 | 11 | 3.0 | 19.0 | 0.00 | 0.00 | 0.00 | 69 | 1014.1 |
| 20260902133107 | 80 | 11 | 4.0 | 15.0 | 0.00 | 0.00 | 0.00 | 69 | 1013.9 |
| 20260902131524 | 80 | 11 | 4.0 | 12.0 | 0.00 | 0.00 | 0.00 | 70 | 1013.8 |
| 20260902130115 | 79 | 11 | 5.0 | 16.0 | 0.00 | 0.00 | 0.00 | 70 | 1013.8 |
| 20260902124523 | 79 | 11 | 4.0 | 14.0 | 0.00 | 0.00 | 0.00 | 71 | 1013.7 |
| 20260902123110 | 78 | 181 | 5.0 | 13.0 | 0.00 | 0.00 | 0.00 | 71 | 1013.5 |
| 20260902121524 | 78 | 177 | 4.0 | 11.0 | 0.00 | 0.00 | 0.00 | 72 | 1013.5 |
| 20260902120117 | 78 | 11 | 3.0 | 11.0 | 0.00 | 0.00 | 0.00 | 72 | 1013.4 |
| 20260902114539 | 78 | 203 | 3.0 | 10.0 | 0.00 | 0.00 | 0.00 | 71 | 1013.3 |
| 20260902113127 | 78 | 170 | 3.0 | 9.0 | 0.00 | 0.00 | 0.00 | 71 | 1013.2 |
| 20260902111530 | 78 | 11 | 3.0 | 8.0 | 0.00 | 0.00 | 0.00 | 70 | 1013.2 |
| 20260902110129 | 79 | 11 | 3.0 | 11.0 | 0.00 | 0.00 | 0.00 | 69 | 1013.2 |
| 20260902104602 | 79 | 11 | 2.0 | 13.0 | 0.00 | 0.00 | 0.00 | 68 | 1013.1 |
| 20260902103126 | 79 | 11 | 3.0 | 10.0 | 0.00 | 0.00 | 0.00 | 68 | 1013.0 |
| 20260902101542 | 79 | 207 | 4.0 | 12.0 | 0.00 | 0.00 | 0.00 | 67 | 1013.0 |
| 20260902100123 | 79 | 207 | 4.0 | 15.0 | 0.00 | 0.00 | 0.00 | 67 | 1012.7 |
| 20260902094538 | 79 | 165 | 4.0 | 16.0 | 0.00 | 0.00 | 0.00 | 68 | 1012.7 |
| 20260902093133 | 78 | 11 | 3.0 | 10.0 | 0.00 | 0.00 | 0.00 | 68 | 1012.7 |
| 20260902091541 | 78 | 182 | 2.0 | 10.0 | 0.00 | 0.00 | 0.00 | 68 | 1012.7 |
| 20260902090130 | 78 | 11 | 3.0 | 9.0 | 0.00 | 0.00 | 0.00 | 68 | 1012.5 |
| 20260902084554 | 78 | 11 | 2.0 | 12.0 | 0.00 | 0.00 | 0.00 | 68 | 1012.6 |
| 20260902083003 | 79 | 11 | 1.0 | 6.0 | 0.00 | 0.00 | 0.00 | 67 | 1012.4 |
| 20260902081543 | 79 | 185 | 1.0 | 5.0 | 0.00 | 0.00 | 0.00 | 66 | 1012.2 |
| 20260902080127 | 80 | 11 | 1.0 | 6.0 | 0.00 | 0.00 | 0.00 | 65 | 1012.2 |
| 20260902074633 | 81 | 184 | 2.0 | 8.0 | 0.00 | 0.00 | 0.00 | 63 | 1012.3 |
| 20260902073030 | 81 | 11 | 2.0 | 9.0 | 0.00 | 0.00 | 0.00 | 62 | 1012.1 |
| 20260902071614 | 82 | 161 | 2.0 | 9.0 | 0.00 | 0.00 | 0.00 | 62 | 1012.1 |
| 20260902070040 | 82 | 11 | 3.0 | 8.0 | 0.00 | 0.00 | 0.00 | 61 | 1012.1 |
| 20260902064629 | 83 | 11 | 2.0 | 8.0 | 0.00 | 0.00 | 0.00 | 60 | 1012.2 |